This demonstration page uses our WeatherBlox Daily Observations layout. Learn more.

Left ArrowRight Arrow

44.31136, -96.79839

Hourly Observations for September 29, 2022

Temp ( °F °C ) Dew Point ( °F °C ) Humidity (%) Winds ( mph kmh ) Pressure ( in mb ) Visibility ( mi km ) Precip ( " mm )
12:56 am 00:56 Clear N/A N/A N/A SSE 16 26 30.40 1029 10 16 0.00 0.00
1:56 am 01:56 Clear N/A N/A N/A S 15 24 30.39 1029 10 16 0.00 0.00
2:56 am 02:56 Clear N/A N/A N/A S 14 22 30.38 1029 10 16 0.00 0.00
3:56 am 03:56 Clear N/A N/A N/A S 17 28 30.36 1028 10 16 0.00 0.00
4:56 am 04:56 Clear N/A N/A N/A SSE 15 24 30.35 1028 10 16 0.00 0.00
5:56 am 05:56 Clear N/A N/A N/A S 15 24 30.35 1028 10 16 0.00 0.00
6:56 am 06:56 Clear N/A N/A N/A SSE 10 17 30.35 1028 10 16 0.00 0.00
7:56 am 07:56 Sunny N/A N/A N/A SSE 12 19 N/A 10 16 0.00 0.00
8:56 am 08:56 Sunny N/A N/A N/A SSE 15 24 30.33 1027 10 16 0.00 0.00
9:56 am 09:56 Sunny N/A N/A N/A S 20 31 30.32 1027 10 16 0.00 0.00
10:56 am 10:56 Sunny N/A N/A N/A S 20 31 30.30 1026 10 16 0.00 0.00
11:56 am 11:56 Sunny N/A N/A N/A SSE 23 37 30.28 1025 10 16 0.00 0.00
12:56 pm 12:56 Sunny N/A N/A N/A S 21 33 30.25 1024 10 16 0.00 0.00
1:56 pm 13:56 Sunny N/A N/A N/A SSE 25 41 30.21 1023 10 16 0.00 0.00
2:56 pm 14:56 Sunny N/A N/A N/A S 20 31 30.19 1022 10 16 0.00 0.00
3:56 pm 15:56 Sunny N/A N/A N/A S 15 24 30.17 1022 10 16 0.00 0.00
4:56 pm 16:56 Sunny N/A N/A N/A S 24 39 30.15 1021 10 16 0.00 0.00
5:56 pm 17:56 Sunny N/A N/A N/A SSE 23 37 30.14 1021 10 16 0.00 0.00
6:56 pm 18:56 Sunny N/A N/A N/A SSE 18 30 30.14 1021 10 16 0.00 0.00
7:56 pm 19:56 Clear N/A N/A N/A SSE 14 22 30.14 1021 10 16 0.00 0.00
8:56 pm 20:56 Clear N/A N/A N/A SSE 15 24 30.16 1021 10 16 0.00 0.00
9:56 pm 21:56 Clear N/A N/A N/A SSE 17 28 30.17 1022 10 16 0.00 0.00
10:56 pm 22:56 Clear N/A N/A N/A SSE 18 30 30.17 1022 10 16 0.00 0.00
11:56 pm 23:56 Clear N/A N/A N/A SSE 20 31 30.17 1022 10 16 0.00 0.00

Powered by AerisWeather